Temperature
9 8 8 9 10 10 10 10 10 11 12 11 11 11 11 12 11 11 10 10 10 9 9 9 9 9 9 9 9 9 10 10 10 11 11 11 11 12 12 12 12 13 13 13
8 8 9 10 10 10 10 10 10 11 11 11 10 11 11 11 11 10 10 9 9 8 8 8 8 8 8 8 8 9 9 9 10 10 10 10 11 11 11 12 12 12 12 12
8 9 10 10 10 10 10 10 10 10 10 11 10 10 11 11 11 10 9 9 8 8 7 7 7 7 8 8 8 8 8 9 9 9 10 10 10 10 11 11 11 11 12 12
8 9 9 9 9 9 9 10 10 9 9 8 10 8 10 10 10 10 9 8 8 7 7 7 7 7 7 7 8 8 8 8 9 9 9 9 9 10 10 10 11 11 11 11
8 9 9 9 9 9 9 10 10 9 9 8 9 8 9 10 9 9 8 8 7 7 7 6 6 6 7 7 7 7 7 8 8 8 8 8 9 9 9 9 10 10 10 10
9 9 9 9 9 9 9 9 9 9 8 8 9 9 9 9 9 9 8 8 7 6 6 6 6 6 6 6 7 7 7 7 7 8 8 8 8 8 8 9 9 9 9 10
8 9 9 9 9 9 9 8 8 8 8 8 10 9 9 10 9 9 8 7 7 6 6 6 6 5 6 6 6 6 6 7 7 7 7 8 8 8 8 8 9 9 9 9
8 8 9 9 9 8 9 8 8 8 8 9 10 9 9 10 9 9 8 7 7 6 6 5 5 5 5 5 5 6 6 6 6 7 7 7 7 8 8 8 8 8 8 9
8 8 9 9 10 9 8 8 9 8 8 8 9 10 10 9 9 8 8 7 7 6 5 5 5 5 5 5 5 5 5 6 6 6 7 7 7 7 7 8 8 8 8 8
8 7 9 9 9 9 9 9 8 7 8 8 9 10 9 8 8 8 8 7 7 6 5 5 5 5 5 5 5 5 5 5 5 5 6 6 6 7 7 7 7 7 7 8
8 7 8 9 8 8 8 8 8 8 8 8 8 9 10 9 9 8 8 8 7 6 5 5 5 4 4 4 4 4 4 5 5 5 5 5 6 6 6 7 7 7 7 7
8 7 7 9 9 9 9 9 8 7 7 8 7 8 10 9 9 8 8 8 7 6 5 5 4 4 4 4 4 4 4 5 5 5 5 5 5 5 6 6 6 6 6 6
8 7 6 8 8 8 8 9 9 8 7 6 7 8 9 9 9 9 8 8 7 6 5 5 5 4 4 4 4 4 4 4 5 5 5 5 5 5 5 6 6 6 6 6
8 7 6 7 7 8 7 8 8 7 5 6 7 8 9 9 8 8 8 8 7 6 5 5 4 4 4 4 4 4 4 4 4 5 4 5 5 5 5 5 5 5 5 5
7 6 7 7 8 8 8 8 8 7 6 6 7 8 8 8 8 8 8 8 7 6 5 5 4 4 4 4 4 4 4 4 4 4 4 4 4 5 5 5 5 5 5 5
7 6 7 6 8 8 7 7 8 8 8 7 7 8 9 9 9 9 8 7 7 6 5 5 4 4 4 4 4 4 4 4 4 4 4 4 4 4 4 4 4 4 4 4
7 7 6 6 8 7 6 8 8 8 8 8 7 8 9 8 8 8 8 7 7 6 5 5 5 4 4 4 4 4 4 4 4 4 4 4 4 4 4 4 4 4 4 4
6 6 5 5 6 6 8 9 9 8 8 8 8 8 8 8 8 8 8 7 7 6 5 5 5 5 4 4 4 4 4 4 4 4 4 4 4 3 3 3 4 4 3 3
6 5 5 5 5 7 9 8 8 8 7 8 8 8 8 8 8 7 7 7 6 6 5 5 5 5 4 4 4 4 4 4 4 4 3 3 3 3 3 3 3 3 3 3
5 5 4 5 5 6 9 8 8 8 6 8 9 8 8 7 5 6 7 7 6 6 5 5 5 5 4 4 4 4 4 3 4 3 3 3 3 3 3 3 3 2 2 2
4 4 4 4 5 6 8 7 7 6 7 9 9 8 8 7 6 7 7 6 6 6 5 5 5 5 5 4 4 4 4 4 4 3 3 3 3 3 3 2 2 2 2 2
5 4 4 5 5 6 7 6 6 7 8 9 8 8 8 7 7 7 6 6 6 5 5 5 5 5 5 4 4 4 4 4 3 3 3 3 3 2 2 2 2 1 1 1
6 6 6 6 6 8 8 8 9 8 8 8 8 7 7 7 6 6 6 5 5 5 5 5 5 4 4 4 4 4 4 3 3 3 3 2 2 2 2 2 1 1 1 1
7 7 6 6 6 8 9 9 9 8 8 7 7 7 6 6 6 6 5 5 5 5 5 5 4 4 4 4 4 4 3 3 3 3 2 2 2 2 2 1 1 1 1 0
6 6 5 5 6 8 9 9 9 8 8 7 7 6 6 6 6 5 5 5 5 5 5 4 4 4 4 4 4 3 3 3 3 3 2 2 2 1 1 1 1 0 0 -0
5 5 5 5 7 7 8 9 8 8 7 7 6 6 6 6 5 5 5 5 5 5 4 4 4 4 4 3 3 3 3 3 2 2 2 2 1 1 1 1 0 0 -0 -1
Wind_Speed
1 1 1 1 2 3 2 3 3 2 1 3 6 7 6 3 2 2 2 3 4 5 6 6 6 5 6 5 5 5 4 4 3 2 2 2 2 2 1 2 2 2 2 3
1 1 2 1 2 3 4 3 2 1 1 4 6 8 6 2 2 1 2 3 4 6 7 7 7 6 6 6 5 5 4 4 3 3 2 2 2 2 1 1 1 2 2 3
2 2 1 2 2 3 3 3 2 3 5 5 5 5 4 3 4 2 2 3 4 5 6 7 7 6 6 6 6 5 5 4 4 3 2 1 1 1 1 1 1 1 1 2
2 1 1 1 2 3 3 3 3 3 3 3 3 3 3 4 3 1 1 3 4 5 6 6 7 8 7 6 5 5 5 5 4 2 1 2 2 2 2 2 2 2 1 1
1 2 2 2 2 3 2 4 5 5 5 4 4 4 4 3 3 1 1 3 4 5 5 6 6 7 7 7 5 4 5 4 4 2 1 1 2 2 1 1 2 2 2 2
0 1 1 2 2 3 4 5 5 4 2 3 5 5 3 2 2 0 2 3 3 4 5 6 6 7 7 7 6 5 5 5 5 3 2 1 1 1 1 1 2 1 1 1
0 2 2 0 2 1 2 2 1 2 3 4 2 3 3 2 3 2 1 2 3 4 5 6 7 7 8 8 6 5 6 5 5 4 3 2 1 0 1 1 1 1 1 1
2 1 1 1 2 2 3 2 2 2 2 1 1 3 1 5 5 3 2 1 2 4 4 5 5 5 6 7 6 6 6 6 5 5 4 3 2 1 0 0 1 1 1 1
4 1 1 0 1 2 2 1 2 3 4 3 3 3 3 4 3 2 1 1 1 2 3 4 4 5 5 6 6 6 5 5 5 5 4 3 3 2 0 1 1 1 0 0
4 3 1 1 1 2 2 3 2 2 3 4 3 3 3 4 4 3 1 0 1 2 2 3 4 5 5 5 5 6 5 4 4 5 4 3 3 3 2 2 1 1 0 0
3 3 2 2 2 1 2 1 2 3 3 3 4 2 1 3 4 3 1 0 1 1 2 2 3 4 4 4 5 5 5 5 4 4 4 4 3 2 2 2 2 0 0 0
3 3 4 3 2 1 1 2 1 2 4 3 3 3 2 4 3 2 2 1 1 0 1 2 2 3 4 4 4 4 4 5 5 4 4 4 4 3 3 2 2 1 1 1
4 3 4 1 2 2 3 3 4 3 3 4 3 3 2 3 2 1 1 1 1 1 1 1 2 2 3 3 4 3 4 4 4 4 4 4 4 4 3 2 2 2 1 1
3 3 4 4 4 3 5 6 5 4 3 5 5 5 3 2 2 2 2 2 2 1 0 1 1 2 2 2 3 3 3 3 4 4 3 4 4 4 3 3 3 2 2 1
3 4 6 10 10 9 10 10 8 9 8 7 6 6 6 3 3 3 2 2 2 1 1 0 1 1 2 2 2 2 2 2 3 3 3 3 3 3 3 3 3 3 2 2
3 5 7 8 8 8 11 12 11 11 11 11 11 10 5 2 1 2 2 3 2 2 1 1 1 1 1 2 2 2 1 1 1 2 2 2 3 3 3 3 3 3 3 3
3 4 4 5 5 7 9 8 9 7 7 7 9 7 3 2 3 3 3 3 3 3 2 2 2 1 1 1 1 1 1 1 1 1 2 2 2 3 3 3 3 3 3 2
4 4 3 5 6 6 5 2 2 6 8 8 7 5 4 3 3 2 2 2 2 2 2 2 2 2 1 1 1 1 1 1 1 1 2 2 2 2 2 3 3 3 2 2
6 4 4 3 5 8 5 3 3 3 5 6 7 6 4 2 2 2 3 3 3 2 2 2 2 2 2 1 1 0 0 0 1 1 1 1 1 2 2 2 2 2 2 2
4 5 4 4 4 6 3 4 3 1 5 3 4 4 3 2 2 3 2 2 2 1 2 2 2 1 1 2 1 1 1 0 1 1 1 1 0 0 1 1 1 2 2 2
4 5 7 7 6 8 3 5 4 2 4 2 3 3 4 4 5 2 2 1 2 2 2 2 2 2 3 2 2 2 2 2 1 0 0 1 0 0 1 1 1 2 2 2
7 6 7 6 7 9 5 6 6 5 1 2 2 3 4 4 3 2 2 3 3 3 3 3 3 3 3 3 3 3 3 2 1 1 0 0 1 1 0 1 1 2 2 2
8 8 5 7 9 4 7 7 5 2 3 3 3 3 3 4 5 4 4 4 4 4 3 3 3 3 3 3 3 4 4 2 1 1 1 1 1 0 0 0 1 1 2 1
5 5 5 7 9 8 8 9 8 6 6 5 5 5 5 6 6 5 5 4 4 4 4 4 4 4 4 4 4 4 3 2 2 2 2 2 1 1 1 1 1 1 1 2
6 4 5 9 10 9 10 10 8 6 5 5 5 5 6 6 6 6 5 5 5 4 4 4 5 5 5 4 4 4 3 3 3 3 3 2 2 2 1 1 1 1 1 2
10 12 10 12 9 7 6 4 4 5 6 6 6 6 6 6 6 6 5 5 5 5 4 4 5 5 5 4 4 4 4 4 4 3 3 2 2 2 2 1 2 3 3 3
Wind_Direction
172 205 144 169 266 329 302 283 283 282 240 265 262 271 274 257 265 296 319 328 342 341 350 354 347 346 339 333 325 312 305 293 289 264 230 227 232 225 228 220 196 184 184 173
169 62 33 359 295 310 291 275 278 295 274 276 273 275 266 208 150 42 5 360 360 347 348 350 345 346 337 332 327 323 317 315 300 271 243 213 211 213 210 217 157 166 166 160
53 49 347 280 276 291 299 299 323 325 315 266 267 272 223 155 134 91 49 27 5 350 344 342 345 348 342 344 342 329 322 313 299 285 268 232 228 231 224 225 188 156 143 153
55 28 324 299 323 335 313 339 323 303 298 279 251 280 232 174 168 126 65 23 5 355 350 352 352 350 350 347 345 336 324 321 312 304 254 217 209 212 225 205 181 165 147 136
47 34 2 352 359 330 305 310 284 270 272 283 234 242 258 176 198 205 51 22 8 3 354 356 0 356 353 353 349 342 339 339 341 340 298 233 221 215 216 188 166 179 187 159
110 57 5 350 329 277 295 290 265 245 252 263 222 210 267 189 196 175 53 29 13 6 357 2 7 4 359 358 359 357 350 347 350 352 341 311 219 220 212 209 187 176 173 162
68 131 123 322 307 249 289 308 288 221 220 242 181 200 255 122 109 118 79 21 9 7 9 4 3 1 359 356 355 358 357 352 350 357 7 358 340 262 213 210 180 177 181 168
347 4 125 175 329 317 278 298 334 303 296 295 203 225 214 113 101 103 110 85 31 13 11 4 360 359 359 358 358 359 360 355 357 5 13 11 7 4 232 145 158 151 147 152
352 348 101 174 309 304 307 295 337 303 289 268 227 192 153 127 125 144 147 77 23 9 1 359 357 3 5 2 360 356 359 2 7 8 9 13 11 355 344 99 94 129 164 194
334 307 257 178 214 224 278 316 312 287 307 296 254 211 210 186 201 194 181 273 354 6 359 359 2 6 6 4 3 3 7 13 16 15 15 18 23 10 18 51 57 62 332 201
318 296 274 214 217 226 203 245 266 275 275 294 304 290 45 154 163 167 199 171 54 15 351 360 2 6 10 12 12 6 8 18 18 18 21 22 17 14 29 40 37 20 94 86
346 307 282 248 132 105 257 276 278 284 295 275 280 274 76 102 126 152 190 168 124 68 10 4 6 16 16 13 9 8 12 16 15 19 24 21 13 14 26 29 21 31 50 39
339 304 304 263 149 184 248 248 254 270 289 261 260 254 128 120 154 186 204 180 168 130 38 5 14 17 9 2 359 8 12 11 8 12 21 20 14 9 7 3 5 15 26 1
317 268 252 275 294 295 271 260 238 229 232 261 244 257 264 248 232 223 205 201 191 150 118 7 357 355 355 353 355 2 4 8 6 9 17 17 9 4 358 1 6 9 9 353
280 270 273 275 276 273 268 263 245 227 229 242 266 270 271 279 262 245 204 199 204 188 191 211 298 320 339 347 345 352 358 4 3 5 11 7 3 6 2 3 5 2 359 353
270 279 291 279 257 257 265 257 245 240 237 246 264 273 265 252 224 237 225 213 217 225 221 216 227 273 309 321 322 332 335 337 353 1 358 355 2 5 5 6 13 13 6 358
271 287 304 288 302 301 271 241 221 221 223 226 242 249 256 267 244 240 232 227 226 219 215 218 223 236 262 280 296 310 326 342 6 359 358 8 15 14 8 13 21 13 359 356
269 287 274 290 315 265 243 127 188 232 242 229 240 252 253 266 268 246 218 212 237 231 216 215 210 218 234 255 295 310 5 15 26 27 18 13 14 9 12 20 13 358 353 344
220 248 271 278 285 277 249 195 182 223 263 222 227 240 244 270 307 261 210 188 219 225 210 203 203 213 210 206 228 320 46 35 36 22 1 353 8 9 12 10 353 344 350 354
209 229 252 261 267 264 257 130 107 43 273 221 195 211 209 167 248 251 167 158 202 194 175 182 184 190 203 215 187 181 207 224 270 288 302 315 14 28 350 331 335 347 353 351
189 211 225 239 253 267 236 142 131 197 248 147 165 199 197 205 217 230 171 189 205 211 203 187 189 197 212 203 183 202 212 237 245 250 306 333 334 287 294 334 349 344 345 357
195 201 207 207 226 251 174 152 194 223 192 196 216 219 224 229 242 243 222 222 223 226 216 196 200 215 216 198 190 211 229 232 173 153 207 243 271 294 325 331 325 330 340 345
209 211 213 212 225 232 180 206 227 226 247 249 249 256 244 240 243 238 235 231 224 220 215 204 210 220 222 209 200 219 235 211 172 185 223 228 215 259 296 274 294 320 326 328
230 203 234 263 262 258 238 235 236 229 233 246 247 249 243 242 243 240 234 235 228 219 215 209 212 221 231 224 215 219 217 193 192 214 223 206 196 225 254 267 271 286 289 291
244 208 229 252 266 274 257 240 234 232 234 242 246 237 233 236 241 239 237 234 230 227 218 210 217 225 233 226 221 216 202 187 203 215 216 207 199 200 219 237 252 254 254 251
219 227 231 245 240 239 256 233 219 228 232 231 237 244 240 230 234 234 234 229 225 224 220 222 225 227 232 228 224 215 198 190 200 215 216 209 206 206 207 229 278 270 255 281
Height
1489 1490 1490 1489 1488 1487 1488 1487 1488 1486 1485 1486 1485 1483 1481 1480 1481 1481 1482 1481 1481 1480 1478 1476 1475 1473 1471 1470 1468 1468 1468 1468 1469 1471 1472 1473 1474 1476 1478 1480 1482 1484 1487 1490
1490 1491 1489 1488 1488 1488 1487 1487 1487 1485 1484 1485 1484 1481 1478 1477 1479 1480 1481 1480 1480 1478 1476 1474 1472 1470 1468 1466 1465 1464 1464 1465 1466 1467 1468 1469 1470 1472 1474 1476 1477 1480 1482 1485
1490 1491 1489 1489 1489 1489 1487 1488 1488 1489 1487 1483 1484 1482 1476 1476 1477 1479 1480 1480 1479 1478 1475 1473 1470 1468 1466 1464 1462 1461 1461 1462 1462 1463 1464 1466 1467 1468 1470 1471 1473 1476 1478 1481
1491 1491 1490 1490 1489 1489 1490 1487 1488 1489 1491 1490 1487 1491 1478 1475 1476 1478 1479 1479 1478 1476 1474 1472 1469 1467 1464 1462 1460 1459 1459 1459 1459 1460 1461 1462 1463 1464 1466 1468 1469 1471 1474 1476
1492 1491 1491 1491 1491 1491 1491 1488 1488 1488 1490 1491 1486 1490 1481 1474 1476 1477 1478 1478 1477 1475 1473 1471 1468 1466 1463 1461 1459 1457 1457 1456 1456 1457 1458 1459 1460 1461 1463 1465 1466 1468 1470 1472
1492 1492 1493 1493 1492 1491 1490 1489 1486 1487 1490 1493 1482 1485 1481 1476 1475 1475 1476 1477 1476 1475 1473 1470 1468 1465 1463 1460 1458 1456 1455 1454 1454 1454 1455 1456 1457 1459 1460 1461 1463 1465 1467 1468
1493 1492 1493 1493 1492 1491 1492 1494 1494 1493 1493 1486 1475 1479 1479 1472 1472 1474 1475 1476 1476 1474 1472 1470 1467 1465 1462 1459 1457 1455 1454 1453 1453 1452 1453 1454 1455 1456 1457 1459 1460 1462 1463 1464
1496 1496 1493 1493 1493 1494 1492 1493 1497 1496 1489 1482 1476 1479 1475 1471 1471 1473 1475 1475 1475 1473 1472 1470 1467 1465 1462 1459 1457 1455 1453 1452 1452 1451 1451 1452 1453 1454 1455 1456 1457 1459 1460 1462
1498 1497 1492 1492 1492 1492 1492 1492 1491 1495 1488 1486 1478 1472 1471 1470 1472 1473 1474 1474 1473 1473 1471 1469 1467 1465 1462 1459 1457 1455 1453 1452 1451 1450 1450 1450 1450 1451 1451 1453 1454 1456 1457 1459
1499 1499 1492 1491 1492 1492 1493 1492 1494 1495 1493 1486 1475 1471 1473 1472 1471 1472 1472 1472 1472 1472 1470 1469 1467 1464 1462 1459 1457 1455 1453 1452 1451 1449 1449 1448 1448 1449 1449 1450 1452 1453 1455 1457
1499 1500 1495 1491 1491 1491 1493 1493 1492 1492 1490 1492 1485 1478 1466 1467 1468 1470 1471 1471 1471 1471 1470 1468 1466 1464 1462 1460 1457 1455 1453 1452 1450 1449 1447 1447 1447 1447 1448 1449 1450 1451 1453 1454
1499 1500 1498 1490 1487 1488 1489 1489 1491 1497 1493 1487 1488 1483 1466 1466 1467 1468 1469 1470 1470 1470 1469 1467 1466 1464 1461 1459 1457 1455 1453 1452 1450 1449 1448 1447 1447 1447 1447 1447 1448 1449 1450 1451
1501 1501 1502 1492 1494 1492 1490 1488 1488 1490 1493 1491 1489 1481 1466 1466 1467 1468 1468 1469 1469 1468 1468 1466 1465 1463 1461 1459 1457 1455 1454 1452 1451 1450 1448 1447 1446 1446 1446 1446 1447 1447 1448 1449
1502 1501 1502 1500 1492 1490 1489 1486 1486 1489 1495 1489 1480 1474 1468 1467 1466 1466 1467 1467 1467 1467 1466 1465 1464 1462 1460 1459 1457 1456 1454 1453 1452 1450 1449 1447 1446 1446 1445 1445 1446 1446 1447 1447
1501 1500 1495 1491 1486 1485 1484 1483 1482 1484 1484 1484 1474 1470 1466 1465 1465 1464 1465 1465 1465 1465 1465 1464 1463 1461 1460 1458 1457 1455 1454 1453 1452 1450 1448 1447 1446 1445 1445 1445 1445 1445 1445 1446
1499 1498 1494 1489 1481 1480 1480 1476 1475 1475 1475 1473 1471 1468 1462 1462 1463 1463 1463 1463 1463 1463 1463 1462 1461 1460 1459 1458 1456 1455 1454 1452 1451 1450 1448 1447 1446 1445 1445 1444 1444 1444 1444 1444
1498 1497 1496 1492 1481 1481 1479 1467 1467 1468 1465 1466 1468 1464 1460 1461 1461 1461 1461 1461 1461 1461 1461 1460 1459 1458 1457 1456 1455 1454 1452 1451 1450 1449 1448 1447 1446 1445 1444 1444 1443 1443 1442 1442
1499 1498 1498 1494 1488 1487 1467 1459 1460 1461 1460 1459 1458 1458 1458 1459 1459 1459 1459 1459 1459 1459 1458 1458 1457 1456 1456 1455 1454 1452 1451 1450 1449 1448 1448 1447 1446 1444 1444 1443 1442 1441 1441 1440
1496 1498 1498 1495 1490 1475 1461 1459 1459 1461 1459 1454 1455 1455 1456 1457 1457 1457 1456 1456 1456 1456 1456 1455 1455 1454 1454 1453 1452 1451 1450 1449 1448 1447 1446 1445 1445 1444 1443 1441 1441 1440 1439 1438
1494 1496 1499 1493 1491 1481 1460 1458 1457 1461 1460 1451 1451 1453 1454 1455 1459 1456 1454 1454 1454 1454 1453 1453 1452 1452 1452 1451 1450 1449 1448 1447 1446 1446 1445 1444 1443 1442 1441 1440 1439 1438 1437 1436
1495 1496 1496 1494 1488 1471 1457 1456 1458 1465 1457 1450 1450 1451 1452 1452 1454 1453 1452 1451 1451 1451 1451 1450 1450 1449 1449 1449 1448 1447 1446 1445 1445 1444 1443 1443 1442 1441 1440 1439 1438 1437 1436 1434
1485 1487 1486 1485 1484 1471 1454 1455 1457 1454 1449 1448 1448 1449 1449 1449 1450 1449 1449 1449 1448 1448 1448 1447 1447 1447 1446 1446 1445 1444 1444 1443 1443 1442 1441 1440 1440 1439 1438 1437 1436 1435 1434 1432
1473 1471 1469 1468 1463 1451 1450 1449 1448 1448 1447 1447 1447 1447 1447 1446 1446 1446 1446 1445 1445 1445 1444 1444 1444 1444 1443 1443 1442 1442 1441 1441 1440 1439 1439 1438 1437 1437 1436 1435 1434 1433 1432 1431
1462 1461 1462 1459 1450 1446 1446 1445 1444 1444 1443 1443 1443 1443 1443 1442 1442 1442 1442 1442 1441 1441 1441 1441 1440 1440 1440 1439 1439 1439 1438 1438 1437 1436 1436 1435 1434 1434 1433 1432 1432 1431 1430 1428
1459 1458 1458 1454 1446 1443 1440 1439 1439 1439 1439 1439 1439 1438 1438 1438 1438 1438 1438 1438 1437 1437 1437 1437 1437 1436 1436 1436 1436 1436 1435 1435 1434 1433 1433 1432 1432 1431 1430 1430 1429 1428 1427 1427
1450 1452 1452 1445 1439 1438 1435 1435 1435 1435 1434 1434 1434 1434 1434 1434 1434 1433 1433 1433 1433 1433 1433 1432 1432 1432 1432 1432 1432 1432 1432 1431 1430 1430 1429 1429 1429 1428 1427 1427 1426 1425 1425 1424